Time,TemperatureF,DewpointF,PressureIn,WindDirection,WindDirectionDegrees,WindSpeedMPH,WindSpeedGustMPH,Humidity,HourlyPrecipIn,Conditions,Clouds,dailyrainin,SolarRadiationWatts/m^2,SoftwareType,DateUTC
2013-04-18 00:03:00,36.1,35.1,29.80,NNW,338,7.1,11.5,96,0.00,RA,SCT,0.00,0.0,WeatherDisplay:10.37,2013-04-18 05:03:00,
2013-04-18 00:08:00,36.1,35.1,29.80,NNE,22,8.5,11.5,96,0.00,RA,SCT,0.00,0.0,WeatherDisplay:10.37,2013-04-18 05:08:00,
2013-04-18 00:14:00,36.1,35.1,29.77,NNE,22,5.4,10.4,96,0.00,CLR,SCT,0.00,0.0,WeatherDisplay:10.37,2013-04-18 05:14:00,
2013-04-18 00:19:00,36.1,35.1,29.77,North,0,5.6,16.1,96,0.00,CLR,SCT,0.00,0.0,WeatherDisplay:10.37,2013-04-18 05:19:00,
2013-04-18 00:24:00,36.0,34.9,29.77,NNW,338,4.7,6.9,96,0.04,RA,SCT,0.04,0.0,WeatherDisplay:10.37,2013-04-18 05:24:00,
2013-04-18 00:29:00,35.8,34.8,29.77,ENE,68,6.7,12.7,96,0.04,RA,SCT,0.04,0.0,WeatherDisplay:10.37,2013-04-18 05:29:00,
2013-04-18 00:34:00,35.8,34.8,29.77,East,90,4.7,5.8,96,0.08,RA,SCT,0.08,0.0,WeatherDisplay:10.37,2013-04-18 05:34:00,
2013-04-18 00:39:00,35.6,34.6,29.77,NNE,22,6.9,10.4,96,0.08,RA,SCT,0.08,0.0,WeatherDisplay:10.37,2013-04-18 05:39:00,
2013-04-18 00:44:00,35.6,34.6,29.74,NNW,338,5.9,10.4,96,0.12,RA,SCT,0.12,0.0,WeatherDisplay:10.37,2013-04-18 05:44:00,
2013-04-18 00:49:00,35.6,34.8,29.74,NW,315,4.9,7.4,97,0.12,RA,SCT,0.12,0.0,WeatherDisplay:10.37,2013-04-18 05:49:00,
2013-04-18 00:55:00,35.6,34.8,29.83,WNW,292,2.6,4.6,97,0.12,CLR,SCT,0.12,0.0,WeatherDisplay:10.37,2013-04-18 05:55:00,
2013-04-18 01:00:00,35.6,34.8,29.83,NNE,22,3.8,6.2,97,0.12,CLR,SCT,0.12,0.0,WeatherDisplay:10.37,2013-04-18 06:00:00,
2013-04-18 01:05:00,35.6,34.8,29.83,SE,135,5.4,8.5,97,0.17,RA,SCT,0.17,0.0,WeatherDisplay:10.37,2013-04-18 06:05:00,
2013-04-18 01:10:00,35.6,34.8,29.83,NNE,22,3.6,5.8,97,0.17,RA,SCT,0.17,0.0,WeatherDisplay:10.37,2013-04-18 06:10:00,
2013-04-18 01:15:00,35.6,34.8,29.83,North,0,6.2,12.7,97,0.17,CLR,SCT,0.17,0.0,WeatherDisplay:10.37,2013-04-18 06:15:00,
2013-04-18 01:20:00,35.6,34.8,29.83,North,0,5.4,6.9,97,0.13,CLR,SCT,0.17,0.0,WeatherDisplay:10.37,2013-04-18 06:20:00,
2013-04-18 01:25:00,35.4,34.7,29.77,ESE,112,6.0,6.9,97,0.17,RA,SCT,0.21,0.0,WeatherDisplay:10.37,2013-04-18 06:25:00,
2013-04-18 01:30:00,35.4,34.7,29.77,NNE,22,5.9,10.4,97,0.13,RA,SCT,0.21,0.0,WeatherDisplay:10.37,2013-04-18 06:30:00,
2013-04-18 01:35:00,35.4,34.7,29.77,North,0,5.4,9.2,97,0.13,CLR,SCT,0.21,0.0,WeatherDisplay:10.37,2013-04-18 06:35:00,
2013-04-18 01:40:00,35.4,34.7,29.80,ENE,68,6.9,12.7,97,0.09,CLR,SCT,0.21,0.0,WeatherDisplay:10.37,2013-04-18 06:40:00,
2013-04-18 01:45:00,35.4,34.7,29.80,NE,45,6.0,12.8,97,0.13,RA,SCT,0.25,0.0,WeatherDisplay:10.37,2013-04-18 06:45:00,
2013-04-18 01:50:00,35.2,34.5,29.80,ENE,68,3.8,6.9,97,0.13,RA,SCT,0.25,0.0,WeatherDisplay:10.37,2013-04-18 06:50:00,
2013-04-18 01:55:00,35.2,34.5,29.74,SSW,202,6.7,13.8,97,0.13,CLR,SCT,0.25,0.0,WeatherDisplay:10.37,2013-04-18 06:55:00,
2013-04-18 02:00:00,35.2,34.5,29.74,NNW,338,6.4,11.5,97,0.13,CLR,SCT,0.25,0.0,WeatherDisplay:10.37,2013-04-18 07:00:00,
2013-04-18 02:06:00,35.2,34.5,29.74,NNW,338,4.7,9.2,97,0.08,CLR,SCT,0.25,0.0,WeatherDisplay:10.37,2013-04-18 07:06:00,
2013-04-18 02:11:00,35.2,34.5,29.83,North,0,4.5,6.9,97,0.12,RA,SCT,0.29,0.0,WeatherDisplay:10.37,2013-04-18 07:11:00,
2013-04-18 02:16:00,35.2,34.5,29.83,ENE,68,6.0,9.0,97,0.12,RA,SCT,0.29,0.0,WeatherDisplay:10.37,2013-04-18 07:16:00,
2013-04-18 02:22:00,35.2,34.5,29.83,NNW,338,4.5,10.9,97,0.12,CLR,SCT,0.29,0.0,WeatherDisplay:10.37,2013-04-18 07:22:00,
2013-04-18 02:27:00,35.1,34.3,29.80,North,0,6.0,10.0,97,0.08,CLR,SCT,0.29,0.0,WeatherDisplay:10.37,2013-04-18 07:27:00,
2013-04-18 02:32:00,35.1,34.0,29.80,ENE,68,5.9,12.7,96,0.08,CLR,SCT,0.29,0.0,WeatherDisplay:10.37,2013-04-18 07:32:00,
2013-04-18 02:37:00,35.1,34.0,29.80,NNE,22,3.8,9.2,96,0.08,CLR,SCT,0.29,0.0,WeatherDisplay:10.37,2013-04-18 07:37:00,
2013-04-18 02:42:00,35.1,34.0,29.83,WNW,292,6.9,10.4,96,0.04,CLR,SCT,0.29,0.0,WeatherDisplay:10.37,2013-04-18 07:42:00,
2013-04-18 02:47:00,34.9,33.9,29.83,ENE,68,4.5,8.1,96,0.04,CLR,SCT,0.29,0.0,WeatherDisplay:10.37,2013-04-18 07:47:00,
2013-04-18 02:52:00,34.9,33.9,29.83,WSW,248,4.3,7.8,96,0.04,CLR,SCT,0.33,0.0,WeatherDisplay:10.37,2013-04-18 07:52:00,
2013-04-18 02:57:00,34.9,33.9,29.77,East,90,4.0,6.9,96,0.08,RA,SCT,0.33,0.0,WeatherDisplay:10.37,2013-04-18 07:57:00,
2013-04-18 03:02:00,34.7,33.7,29.77,NW,315,4.7,8.7,96,0.08,RA,SCT,0.33,0.0,WeatherDisplay:10.37,2013-04-18 08:02:00,
2013-04-18 03:07:00,34.7,33.7,29.77,North,0,6.2,10.4,96,0.08,CLR,SCT,0.33,0.0,WeatherDisplay:10.37,2013-04-18 08:07:00,
2013-04-18 03:13:00,34.5,33.5,29.77,ENE,68,5.4,9.2,96,0.04,CLR,SCT,0.33,0.0,WeatherDisplay:10.37,2013-04-18 08:13:00,
2013-04-18 03:18:00,34.5,33.5,29.77,ENE,68,6.2,10.4,96,0.04,CLR,SCT,0.33,0.0,WeatherDisplay:10.37,2013-04-18 08:18:00,
2013-04-18 03:23:00,34.5,33.5,29.77,NNE,22,8.1,10.5,96,0.04,CLR,SCT,0.33,0.0,WeatherDisplay:10.37,2013-04-18 08:23:00,
2013-04-18 03:28:00,34.5,33.5,29.74,SSE,158,5.4,8.1,96,0.04,CLR,SCT,0.33,0.0,WeatherDisplay:10.37,2013-04-18 08:28:00,
2013-04-18 03:33:00,34.5,33.5,29.74,North,0,4.7,11.8,96,0.04,CLR,SCT,0.33,0.0,WeatherDisplay:10.37,2013-04-18 08:33:00,
2013-04-18 03:38:00,34.5,33.5,29.74,North,0,6.4,13.8,96,0.04,CLR,SCT,0.33,0.0,WeatherDisplay:10.37,2013-04-18 08:38:00,
2013-04-18 03:43:00,34.5,33.5,29.74,ENE,68,4.3,10.4,96,0.04,CLR,SCT,0.33,0.0,WeatherDisplay:10.37,2013-04-18 08:43:00,
2013-04-18 03:48:00,34.5,33.5,29.74,NNE,22,6.2,10.4,96,0.04,CLR,SCT,0.33,0.0,WeatherDisplay:10.37,2013-04-18 08:48:00,
2013-04-18 03:53:00,34.5,33.5,29.74,ENE,68,5.6,7.8,96,0.00,CLR,SCT,0.33,0.0,WeatherDisplay:10.37,2013-04-18 08:53:00,
2013-04-18 03:58:00,34.5,33.5,29.74,NNE,22,6.9,12.5,96,0.00,CLR,SCT,0.33,0.0,WeatherDisplay:10.37,2013-04-18 08:58:00,
2013-04-18 04:03:00,34.3,33.1,29.74,NNE,22,7.1,10.4,95,0.00,CLR,SCT,0.33,0.0,WeatherDisplay:10.37,2013-04-18 09:03:00,
2013-04-18 04:08:00,34.3,33.1,29.74,NNW,338,6.9,9.2,95,0.00,CLR,SCT,0.33,0.0,WeatherDisplay:10.37,2013-04-18 09:08:00,
2013-04-18 04:14:00,34.3,33.1,29.71,NNW,338,3.8,8.1,95,0.00,CLR,SCT,0.33,0.0,WeatherDisplay:10.37,2013-04-18 09:14:00,
2013-04-18 04:19:00,34.3,33.1,29.71,NNE,22,4.7,9.2,95,0.00,CLR,SCT,0.33,0.0,WeatherDisplay:10.37,2013-04-18 09:19:00,
2013-04-18 04:24:00,34.3,32.8,29.71,NNE,22,6.9,10.2,94,0.00,CLR,SCT,0.33,0.0,WeatherDisplay:10.37,2013-04-18 09:24:00,
2013-04-18 04:29:00,34.3,32.8,29.71,NNE,22,4.7,5.8,94,0.00,CLR,SCT,0.33,0.0,WeatherDisplay:10.37,2013-04-18 09:29:00,
2013-04-18 04:34:00,34.3,32.8,29.71,North,0,6.7,10.4,94,0.00,CLR,SCT,0.33,0.0,WeatherDisplay:10.37,2013-04-18 09:34:00,
2013-04-18 04:39:00,34.3,32.5,29.71,WNW,292,4.5,5.8,93,0.00,CLR,SCT,0.33,0.0,WeatherDisplay:10.37,2013-04-18 09:39:00,
2013-04-18 04:44:00,34.3,32.5,29.74,North,0,6.7,12.1,93,0.00,CLR,SCT,0.33,0.0,WeatherDisplay:10.37,2013-04-18 09:44:00,
2013-04-18 04:49:00,34.3,32.5,29.74,NNE,22,4.5,6.2,93,0.00,CLR,SCT,0.33,0.0,WeatherDisplay:10.37,2013-04-18 09:49:00,
2013-04-18 04:54:00,34.3,32.3,29.74,ESE,112,6.9,12.7,92,0.00,CLR,SCT,0.33,0.0,WeatherDisplay:10.37,2013-04-18 09:54:00,
2013-04-18 04:59:00,34.2,31.8,29.71,NNE,22,4.7,10.4,91,0.00,CLR,SCT,0.33,0.0,WeatherDisplay:10.37,2013-04-18 09:59:00,
2013-04-18 05:04:00,34.2,31.8,29.71,WNW,292,5.6,9.2,91,0.00,CLR,SCT,0.33,0.0,WeatherDisplay:10.37,2013-04-18 10:04:00,
2013-04-18 05:09:00,34.2,31.8,29.71,NNW,338,6.0,9.2,91,0.00,CLR,SCT,0.33,0.0,WeatherDisplay:10.37,2013-04-18 10:09:00,
2013-04-18 05:15:00,34.2,32.1,29.71,NNE,30,5.0,10.0,92,0.00,CLR,SCT,0.34,0.0,WeatherDisplay:10.37,2013-04-18 10:15:00,
2013-04-18 05:20:00,34.0,31.9,29.71,SSE,158,4.7,9.2,92,0.00,CLR,SCT,0.33,0.0,WeatherDisplay:10.37,2013-04-18 10:20:00,
2013-04-18 05:25:00,34.0,31.9,29.71,NNE,22,4.0,10.4,92,0.00,CLR,SCT,0.33,0.0,WeatherDisplay:10.37,2013-04-18 10:25:00,
2013-04-18 05:30:00,34.0,32.2,29.71,WNW,292,4.5,8.1,93,0.00,CLR,SCT,0.33,0.0,WeatherDisplay:10.37,2013-04-18 10:30:00,
2013-04-18 05:35:00,34.0,32.2,29.71,West,270,5.4,10.4,93,0.00,CLR,SCT,0.33,0.0,WeatherDisplay:10.37,2013-04-18 10:35:00,
2013-04-18 05:40:00,34.0,32.2,29.71,NNW,338,5.9,6.9,93,0.00,CLR,SCT,0.33,0.0,WeatherDisplay:10.37,2013-04-18 10:40:00,
2013-04-18 05:45:00,34.0,32.4,29.71,WSW,248,4.0,6.9,94,0.00,CLR,SCT,0.33,0.0,WeatherDisplay:10.37,2013-04-18 10:45:00,
2013-04-18 05:50:00,34.0,32.4,29.71,WSW,248,6.0,8.1,94,0.00,CLR,SCT,0.33,0.0,WeatherDisplay:10.37,2013-04-18 10:50:00,
2013-04-18 05:55:00,33.8,32.5,29.68,NW,315,5.4,10.4,95,0.00,CLR,SCT,0.33,0.0,WeatherDisplay:10.37,2013-04-18 10:55:00,
2013-04-18 06:01:00,33.8,32.5,29.68,WNW,292,5.9,13.8,95,0.00,CLR,SCT,0.33,0.0,WeatherDisplay:10.37,2013-04-18 11:01:00,
2013-04-18 06:06:00,33.8,32.5,29.68,SW,225,6.7,10.4,95,0.00,CLR,SCT,0.33,0.0,WeatherDisplay:10.37,2013-04-18 11:06:00,
2013-04-18 06:12:00,33.8,32.5,29.65,North,0,5.9,10.5,95,0.00,CLR,SCT,0.33,0.0,WeatherDisplay:10.37,2013-04-18 11:12:00,
2013-04-18 06:17:00,33.8,32.8,29.65,NNE,22,4.3,9.2,96,0.00,CLR,SCT,0.33,0.0,WeatherDisplay:10.37,2013-04-18 11:17:00,
2013-04-18 06:22:00,33.8,32.8,29.65,WNW,292,6.9,9.8,96,0.00,CLR,SCT,0.33,0.0,WeatherDisplay:10.37,2013-04-18 11:22:00,
2013-04-18 06:27:00,33.8,32.8,29.71,NNW,338,3.3,5.8,96,0.00,CLR,SCT,0.33,0.0,WeatherDisplay:10.37,2013-04-18 11:27:00,
2013-04-18 06:33:00,33.8,33.0,29.71,ENE,68,4.5,9.2,97,0.00,CLR,SCT,0.33,0.0,WeatherDisplay:10.37,2013-04-18 11:33:00,
2013-04-18 06:38:00,33.8,33.0,29.71,West,270,3.3,4.6,97,0.00,CLR,SCT,0.33,0.0,WeatherDisplay:10.37,2013-04-18 11:38:00,
2013-04-18 06:43:00,33.8,33.0,29.71,North,0,5.4,9.2,97,0.00,CLR,SCT,0.33,0.0,WeatherDisplay:10.37,2013-04-18 11:43:00,
2013-04-18 06:48:00,33.8,33.3,29.71,NNE,22,3.6,4.6,98,0.00,CLR,SCT,0.33,0.0,WeatherDisplay:10.37,2013-04-18 11:48:00,
2013-04-18 06:53:00,33.8,33.3,29.71,North,0,2.9,5.8,98,0.00,CLR,SCT,0.33,0.0,WeatherDisplay:10.37,2013-04-18 11:53:00,
2013-04-18 06:58:00,33.6,33.1,29.71,WSW,248,4.0,5.8,98,0.00,CLR,SCT,0.33,0.0,WeatherDisplay:10.37,2013-04-18 11:58:00,
2013-04-18 07:03:00,33.6,33.1,29.71,North,0,4.0,7.1,98,0.00,CLR,SCT,0.33,0.0,WeatherDisplay:10.37,2013-04-18 12:03:00,
2013-04-18 07:08:00,33.6,33.1,29.71,SSW,202,3.3,5.8,98,0.00,CLR,SCT,0.33,0.0,WeatherDisplay:10.37,2013-04-18 12:08:00,
2013-04-18 07:14:00,33.6,33.1,29.71,NNW,338,3.6,7.1,98,0.00,CLR,SCT,0.33,0.0,WeatherDisplay:10.37,2013-04-18 12:14:00,
2013-04-18 07:19:00,33.4,32.9,29.71,SE,135,3.1,7.1,98,0.00,CLR,SCT,0.33,0.0,WeatherDisplay:10.37,2013-04-18 12:19:00,
2013-04-18 07:24:00,33.4,32.9,29.71,NW,315,4.0,6.9,98,0.00,CLR,SCT,0.33,0.0,WeatherDisplay:10.37,2013-04-18 12:24:00,
2013-04-18 07:29:00,33.4,32.9,29.74,NNW,338,3.1,6.9,98,0.00,CLR,SCT,0.33,0.0,WeatherDisplay:10.37,2013-04-18 12:29:00,
2013-04-18 07:34:00,33.6,33.1,29.74,WSW,248,3.6,6.0,98,0.00,CLR,SCT,0.33,0.0,WeatherDisplay:10.37,2013-04-18 12:34:00,
2013-04-18 07:39:00,33.4,32.9,29.74,NNW,338,4.7,7.6,98,0.00,CLR,SCT,0.33,0.0,WeatherDisplay:10.37,2013-04-18 12:39:00,
2013-04-18 07:44:00,33.6,33.1,29.77,NNE,22,3.1,4.6,98,0.00,CLR,SCT,0.33,0.0,WeatherDisplay:10.37,2013-04-18 12:44:00,
2013-04-18 07:50:00,33.4,32.9,29.77,NNE,22,4.3,9.2,98,0.00,CLR,SCT,0.33,0.0,WeatherDisplay:10.37,2013-04-18 12:50:00,
2013-04-18 07:55:00,33.6,33.1,29.74,NNW,338,3.3,8.1,98,0.00,CLR,SCT,0.33,0.0,WeatherDisplay:10.37,2013-04-18 12:55:00,
2013-04-18 08:00:00,33.4,32.9,29.74,SSW,202,3.1,9.2,98,0.00,CLR,SCT,0.38,0.0,WeatherDisplay:10.37,2013-04-18 13:00:00,
2013-04-18 08:05:00,33.1,32.6,29.74,NNW,338,4.5,8.1,98,0.05,RA,SCT,0.38,0.0,WeatherDisplay:10.37,2013-04-18 13:05:00,
2013-04-18 08:10:00,32.7,32.2,29.74,SW,225,7.4,9.2,98,0.05,SCT,,0.38,0.0,WeatherDisplay:10.37,2013-04-18 13:10:00,
2013-04-18 08:15:00,32.5,32.0,29.74,West,270,6.9,15.9,98,0.05,BKN,SCT,0.38,0.0,WeatherDisplay:10.37,2013-04-18 13:15:00,
2013-04-18 08:21:00,32.5,32.0,29.74,NNW,338,4.7,7.8,98,0.05,OVC,SCT,0.38,0.0,WeatherDisplay:10.37,2013-04-18 13:21:00,
2013-04-18 08:26:00,32.5,32.0,29.74,NNW,338,8.5,10.4,98,0.05,OVC,SCT,0.38,0.0,WeatherDisplay:10.37,2013-04-18 13:26:00,
2013-04-18 08:31:00,32.4,31.9,29.74,North,0,7.1,12.7,98,0.05,OVC,SCT,0.38,0.0,WeatherDisplay:10.37,2013-04-18 13:31:00,
2013-04-18 08:36:00,32.4,31.9,29.74,WNW,292,6.4,10.0,98,0.05,OVC,SCT,0.38,0.0,WeatherDisplay:10.37,2013-04-18 13:36:00,
2013-04-18 08:42:00,32.4,31.9,29.74,NNE,22,6.7,10.4,98,0.05,OVC,SCT,0.38,0.0,WeatherDisplay:10.37,2013-04-18 13:42:00,
2013-04-18 08:47:00,32.2,31.7,29.74,WSW,248,7.4,11.8,98,0.05,OVC,SCT,0.38,0.0,WeatherDisplay:10.37,2013-04-18 13:47:00,
2013-04-18 08:52:00,32.2,31.7,29.74,North,0,3.8,10.4,98,0.05,OVC,SCT,0.38,0.0,WeatherDisplay:10.37,2013-04-18 13:52:00,
2013-04-18 08:57:00,32.2,31.7,29.74,South,180,4.0,8.1,98,0.05,OVC,SCT,0.38,0.0,WeatherDisplay:10.37,2013-04-18 13:57:00,
2013-04-18 09:02:00,32.2,31.7,29.74,NNW,338,6.7,13.7,98,0.00,OVC,SCT,0.38,0.0,WeatherDisplay:10.37,2013-04-18 14:02:00,
2013-04-18 09:07:00,32.2,31.7,29.74,WSW,248,7.1,13.8,98,0.00,OVC,SCT,0.38,0.0,WeatherDisplay:10.37,2013-04-18 14:07:00,
2013-04-18 09:12:00,32.0,31.5,29.74,WNW,292,7.4,13.8,98,0.00,OVC,SCT,0.38,0.0,WeatherDisplay:10.37,2013-04-18 14:12:00,
2013-04-18 09:17:00,31.8,31.3,29.74,NNW,338,4.9,12.7,98,0.00,OVC,SCT,0.38,0.0,WeatherDisplay:10.37,2013-04-18 14:17:00,
2013-04-18 09:22:00,31.6,31.1,29.74,WNW,292,6.4,9.2,98,0.00,OVC,SCT,0.38,0.0,WeatherDisplay:10.37,2013-04-18 14:22:00,
2013-04-18 09:27:00,31.5,31.0,29.74,SSW,202,8.1,13.8,98,0.00,OVC,SCT,0.38,0.0,WeatherDisplay:10.37,2013-04-18 14:27:00,
2013-04-18 09:32:00,31.3,30.8,29.74,NNE,22,8.1,12.7,98,0.00,OVC,SCT,0.38,0.0,WeatherDisplay:10.37,2013-04-18 14:32:00,
2013-04-18 09:38:00,31.1,30.6,29.74,NNE,22,7.6,10.4,98,0.00,OVC,SCT,0.38,0.0,WeatherDisplay:10.37,2013-04-18 14:38:00,
2013-04-18 09:43:00,31.1,30.6,29.74,NNW,338,6.7,12.7,98,0.00,OVC,SCT,0.38,0.0,WeatherDisplay:10.37,2013-04-18 14:43:00,
2013-04-18 09:48:00,31.1,30.6,29.74,NNE,22,6.2,12.7,98,0.00,OVC,SCT,0.38,0.0,WeatherDisplay:10.37,2013-04-18 14:48:00,
2013-04-18 09:53:00,31.1,30.6,29.74,WNW,292,5.6,9.2,98,0.00,OVC,SCT,0.38,0.0,WeatherDisplay:10.37,2013-04-18 14:53:00,
2013-04-18 09:58:00,30.9,30.4,29.74,NNE,22,5.6,13.7,98,0.00,OVC,SCT,0.38,0.0,WeatherDisplay:10.37,2013-04-18 14:58:00,
2013-04-18 10:03:00,30.9,30.4,29.74,NNW,338,7.4,9.2,98,0.00,OVC,SCT,0.38,0.0,WeatherDisplay:10.37,2013-04-18 15:03:00,
2013-04-18 10:08:00,30.9,30.4,29.74,NNW,338,6.9,12.5,98,0.00,OVC,SCT,0.38,0.0,WeatherDisplay:10.37,2013-04-18 15:08:00,
2013-04-18 10:13:00,31.1,30.6,29.74,NNW,338,8.1,10.4,98,0.00,OVC,SCT,0.38,0.0,WeatherDisplay:10.37,2013-04-18 15:13:00,
2013-04-18 10:19:00,31.1,30.6,29.74,NW,315,9.8,13.8,98,0.00,OVC,SCT,0.38,0.0,WeatherDisplay:10.37,2013-04-18 15:19:00,
2013-04-18 10:24:00,31.1,30.6,29.74,NW,315,8.7,13.8,98,0.00,OVC,SCT,0.38,0.0,WeatherDisplay:10.37,2013-04-18 15:24:00,
2013-04-18 10:29:00,31.1,30.6,29.77,NNW,338,7.1,16.3,98,0.00,OVC,SCT,0.38,0.0,WeatherDisplay:10.37,2013-04-18 15:29:00,
2013-04-18 10:34:00,31.1,30.6,29.77,WNW,292,10.0,16.1,98,0.00,OVC,SCT,0.38,0.0,WeatherDisplay:10.37,2013-04-18 15:34:00,
2013-04-18 10:39:00,31.1,30.6,29.77,NNW,338,7.1,15.0,98,0.00,OVC,SCT,0.38,0.0,WeatherDisplay:10.37,2013-04-18 15:39:00,
2013-04-18 10:44:00,31.1,30.6,29.77,SSE,158,7.8,10.4,98,0.00,OVC,SCT,0.38,0.0,WeatherDisplay:10.37,2013-04-18 15:44:00,
2013-04-18 10:49:00,31.1,30.6,29.77,NNW,338,9.4,19.2,98,0.00,OVC,SCT,0.38,0.0,WeatherDisplay:10.37,2013-04-18 15:49:00,
2013-04-18 10:54:00,31.1,30.6,29.77,NNW,338,7.8,12.7,98,0.00,OVC,SCT,0.38,0.0,WeatherDisplay:10.37,2013-04-18 15:54:00,
2013-04-18 10:59:00,31.1,30.6,29.77,NNE,22,7.6,17.3,98,0.00,OVC,SCT,0.38,0.0,WeatherDisplay:10.37,2013-04-18 15:59:00,
2013-04-18 11:04:00,31.1,30.6,29.77,NNW,338,6.2,11.5,98,0.00,OVC,SCT,0.38,0.0,WeatherDisplay:10.37,2013-04-18 16:04:00,
2013-04-18 11:10:00,31.1,30.6,29.77,West,270,5.6,12.7,98,0.00,OVC,SCT,0.38,0.0,WeatherDisplay:10.37,2013-04-18 16:10:00,
2013-04-18 11:15:00,31.3,30.8,29.77,WNW,303,5.0,13.0,98,0.00,OVC,SCT,0.38,0.0,WeatherDisplay:10.37,2013-04-18 16:15:00,
2013-04-18 11:20:00,31.3,30.8,29.77,NNW,338,6.0,8.1,98,0.00,OVC,SCT,0.38,0.0,WeatherDisplay:10.37,2013-04-18 16:20:00,
2013-04-18 11:25:00,31.5,31.0,29.77,WNW,292,4.0,10.9,98,0.00,OVC,SCT,0.38,0.0,WeatherDisplay:10.37,2013-04-18 16:25:00,
2013-04-18 11:30:00,31.5,31.0,29.77,NNW,338,5.9,13.8,98,0.00,OVC,SCT,0.38,0.0,WeatherDisplay:10.37,2013-04-18 16:30:00,
2013-04-18 11:35:00,31.5,31.0,29.77,WSW,248,9.2,10.4,98,0.00,OVC,SCT,0.38,0.0,WeatherDisplay:10.37,2013-04-18 16:35:00,
2013-04-18 11:41:00,31.5,31.0,29.77,NNW,338,9.2,15.0,98,0.00,OVC,SCT,0.38,0.0,WeatherDisplay:10.37,2013-04-18 16:41:00,
2013-04-18 11:46:00,31.5,31.0,29.77,NNE,22,7.8,10.5,98,0.00,OVC,SCT,0.38,0.0,WeatherDisplay:10.37,2013-04-18 16:46:00,
2013-04-18 11:52:00,31.6,31.1,29.77,NNW,338,8.5,12.7,98,0.00,OVC,SCT,0.38,0.0,WeatherDisplay:10.37,2013-04-18 16:52:00,
2013-04-18 11:57:00,31.6,31.1,29.77,NNW,338,7.8,12.8,98,0.00,OVC,SCT,0.38,0.0,WeatherDisplay:10.37,2013-04-18 16:57:00,
2013-04-18 12:02:00,32.0,31.5,29.77,NNW,338,4.7,10.4,98,0.00,OVC,SCT,0.38,0.0,WeatherDisplay:10.37,2013-04-18 17:02:00,
2013-04-18 12:07:00,32.0,31.5,29.77,West,270,7.8,13.0,98,0.00,OVC,SCT,0.38,100.0,WeatherDisplay:10.37,2013-04-18 17:07:00,
2013-04-18 12:12:00,32.2,31.7,29.77,ENE,68,9.0,11.5,98,0.00,OVC,SCT,0.38,100.0,WeatherDisplay:10.37,2013-04-18 17:12:00,
2013-04-18 12:17:00,32.4,31.9,29.77,West,270,9.7,16.1,98,0.00,OVC,SCT,0.38,100.0,WeatherDisplay:10.37,2013-04-18 17:17:00,
2013-04-18 12:22:00,32.5,32.0,29.77,North,0,8.5,11.5,98,0.00,OVC,SCT,0.38,100.0,WeatherDisplay:10.37,2013-04-18 17:22:00,
2013-04-18 12:27:00,32.7,32.2,29.77,SSW,202,6.7,17.6,98,0.00,OVC,SCT,0.38,200.0,WeatherDisplay:10.37,2013-04-18 17:27:00,
2013-04-18 12:32:00,32.7,32.2,29.77,North,0,5.9,12.7,98,0.00,OVC,SCT,0.38,100.0,WeatherDisplay:10.37,2013-04-18 17:32:00,
2013-04-18 12:37:00,32.7,32.2,29.77,NNW,338,7.1,14.7,98,0.00,OVC,SCT,0.38,100.0,WeatherDisplay:10.37,2013-04-18 17:37:00,
2013-04-18 12:42:00,32.7,32.2,29.77,NNW,338,10.0,13.8,98,0.00,OVC,SCT,0.38,0.0,WeatherDisplay:10.37,2013-04-18 17:42:00,
2013-04-18 12:47:00,32.7,32.2,29.77,North,0,6.9,12.7,98,0.00,OVC,SCT,0.38,100.0,WeatherDisplay:10.37,2013-04-18 17:47:00,
2013-04-18 12:52:00,32.7,32.2,29.77,NNW,338,9.7,15.0,98,0.00,OVC,SCT,0.38,0.0,WeatherDisplay:10.37,2013-04-18 17:52:00,
2013-04-18 12:57:00,32.7,32.2,29.77,North,0,6.4,10.4,98,0.00,OVC,SCT,0.38,0.0,WeatherDisplay:10.37,2013-04-18 17:57:00,
2013-04-18 13:02:00,32.9,32.1,29.77,West,270,9.4,13.8,97,0.04,RA,SCT,0.43,100.0,WeatherDisplay:10.37,2013-04-18 18:02:00,
2013-04-18 13:07:00,33.1,32.3,29.77,West,270,9.4,13.8,97,0.04,RA,SCT,0.43,100.0,WeatherDisplay:10.37,2013-04-18 18:07:00,
2013-04-18 13:12:00,33.4,32.7,29.77,WNW,292,8.1,8.1,97,0.04,OVC,SCT,0.43,0.0,WeatherDisplay:10.37,2013-04-18 18:12:00,
2013-04-18 13:17:00,33.1,31.5,29.77,NW,315,6.9,10.4,94,0.04,OVC,SCT,0.43,100.0,WeatherDisplay:10.37,2013-04-18 18:17:00,
2013-04-18 13:22:00,33.1,30.7,29.77,NNW,338,8.5,11.5,91,0.08,RA,SCT,0.46,100.0,WeatherDisplay:10.37,2013-04-18 18:22:00,
2013-04-18 13:28:00,33.1,30.7,29.77,NNW,338,8.5,14.5,91,0.08,RA,SCT,0.46,0.0,WeatherDisplay:10.37,2013-04-18 18:28:00,
2013-04-18 13:33:00,33.3,30.9,29.77,NNW,338,6.4,10.4,91,0.08,OVC,SCT,0.46,100.0,WeatherDisplay:10.37,2013-04-18 18:33:00,
2013-04-18 13:38:00,33.3,30.1,29.77,WNW,292,8.7,13.8,88,0.08,OVC,SCT,0.46,0.0,WeatherDisplay:10.37,2013-04-18 18:38:00,
2013-04-18 13:43:00,33.1,29.6,29.77,NNW,338,8.1,12.7,87,0.08,OVC,SCT,0.46,0.0,WeatherDisplay:10.37,2013-04-18 18:43:00,
2013-04-18 13:48:00,33.1,29.9,29.77,NNW,338,10.9,12.7,88,0.08,OVC,SCT,0.46,0.0,WeatherDisplay:10.37,2013-04-18 18:48:00,
2013-04-18 13:53:00,33.1,29.3,29.77,WNW,292,6.7,10.4,86,0.08,OVC,SCT,0.46,0.0,WeatherDisplay:10.37,2013-04-18 18:53:00,
2013-04-18 13:58:00,33.1,29.3,29.77,North,0,8.1,12.7,86,0.08,OVC,SCT,0.46,0.0,WeatherDisplay:10.37,2013-04-18 18:58:00,
2013-04-18 14:03:00,33.1,29.6,29.77,NNW,338,5.9,12.1,87,0.08,RA,SCT,0.50,0.0,WeatherDisplay:10.37,2013-04-18 19:03:00,
2013-04-18 14:09:00,33.1,29.1,29.77,NNW,338,7.8,12.7,85,0.08,RA,SCT,0.50,0.0,WeatherDisplay:10.37,2013-04-18 19:09:00,
2013-04-18 14:14:00,33.3,29.5,29.77,SSE,158,7.8,10.7,86,0.08,OVC,SCT,0.50,0.0,WeatherDisplay:10.37,2013-04-18 19:14:00,
2013-04-18 14:19:00,33.3,29.2,29.77,West,270,7.6,11.5,85,0.04,OVC,SCT,0.50,0.0,WeatherDisplay:10.37,2013-04-18 19:19:00,
2013-04-18 14:24:00,33.4,28.2,29.77,NNW,338,10.7,11.5,81,0.04,OVC,SCT,0.50,100.0,WeatherDisplay:10.37,2013-04-18 19:24:00,
2013-04-18 14:29:00,33.8,28.6,29.77,NNW,338,6.4,11.5,81,0.04,OVC,SCT,0.50,0.0,WeatherDisplay:10.37,2013-04-18 19:29:00,
2013-04-18 14:34:00,33.8,27.7,29.77,NNW,338,5.6,11.5,78,0.04,OVC,SCT,0.50,0.0,WeatherDisplay:10.37,2013-04-18 19:34:00,
2013-04-18 14:39:00,33.8,27.0,29.80,NNW,338,10.9,19.6,76,0.04,OVC,SCT,0.50,0.0,WeatherDisplay:10.37,2013-04-18 19:39:00,
2013-04-18 14:44:00,34.0,27.2,29.80,WNW,292,12.3,19.6,76,0.04,OVC,SCT,0.50,0.0,WeatherDisplay:10.37,2013-04-18 19:44:00,
2013-04-18 14:50:00,34.2,26.4,29.80,WNW,292,9.0,16.1,73,0.04,OVC,SCT,0.50,0.0,WeatherDisplay:10.37,2013-04-18 19:50:00,
2013-04-18 14:55:00,34.3,27.6,29.80,WSW,248,5.6,8.1,76,0.04,OVC,SCT,0.50,0.0,WeatherDisplay:10.37,2013-04-18 19:55:00,
2013-04-18 15:00:00,34.3,27.2,29.80,WNW,292,7.4,15.4,75,0.04,OVC,SCT,0.50,0.0,WeatherDisplay:10.37,2013-04-18 20:00:00,
2013-04-18 15:05:00,34.3,26.6,29.80,North,0,10.2,17.3,73,0.00,OVC,SCT,0.50,0.0,WeatherDisplay:10.37,2013-04-18 20:05:00,
2013-04-18 15:10:00,34.5,26.4,29.77,NNW,338,9.8,9.8,72,0.00,OVC,SCT,0.50,0.0,WeatherDisplay:10.37,2013-04-18 20:10:00,
2013-04-18 15:15:00,34.7,26.6,29.77,NW,315,9.0,12.7,72,0.00,OVC,SCT,0.50,0.0,WeatherDisplay:10.37,2013-04-18 20:15:00,
2013-04-18 15:20:00,34.9,26.8,29.77,North,0,6.2,11.5,72,0.00,OVC,SCT,0.50,0.0,WeatherDisplay:10.37,2013-04-18 20:20:00,
2013-04-18 15:26:00,34.9,27.1,29.77,WNW,292,8.7,14.7,73,0.00,OVC,SCT,0.50,0.0,WeatherDisplay:10.37,2013-04-18 20:26:00,
2013-04-18 15:31:00,34.7,26.9,29.77,WNW,292,8.7,12.7,73,0.00,OVC,SCT,0.50,0.0,WeatherDisplay:10.37,2013-04-18 20:31:00,
2013-04-18 15:36:00,34.9,27.4,29.77,NNW,338,8.5,8.5,74,0.00,OVC,SCT,0.50,0.0,WeatherDisplay:10.37,2013-04-18 20:36:00,
2013-04-18 15:41:00,34.7,25.9,29.77,NNW,338,11.2,15.0,70,0.00,OVC,SCT,0.50,0.0,WeatherDisplay:10.37,2013-04-18 20:41:00,
2013-04-18 15:47:00,34.7,26.3,29.77,WNW,292,9.7,15.0,71,0.00,OVC,SCT,0.50,0.0,WeatherDisplay:10.37,2013-04-18 20:47:00,
2013-04-18 15:52:00,34.9,26.8,29.77,WNW,292,7.8,12.7,72,0.00,OVC,SCT,0.50,0.0,WeatherDisplay:10.37,2013-04-18 20:52:00,
2013-04-18 15:57:00,35.1,27.6,29.77,NNW,338,10.2,12.7,74,0.00,OVC,SCT,0.50,0.0,WeatherDisplay:10.37,2013-04-18 20:57:00,
2013-04-18 16:02:00,35.2,27.4,29.77,WNW,292,6.2,11.5,73,0.00,OVC,SCT,0.50,0.0,WeatherDisplay:10.37,2013-04-18 21:02:00,
2013-04-18 16:08:00,35.2,27.4,29.77,North,0,8.1,15.0,73,0.00,OVC,SCT,0.50,0.0,WeatherDisplay:10.37,2013-04-18 21:08:00,
2013-04-18 16:13:00,35.4,26.9,29.77,WNW,292,6.7,11.5,71,0.00,OVC,SCT,0.50,0.0,WeatherDisplay:10.37,2013-04-18 21:13:00,
2013-04-18 16:18:00,35.6,25.4,29.77,NNE,22,10.2,17.3,66,0.00,OVC,SCT,0.50,0.0,WeatherDisplay:10.37,2013-04-18 21:18:00,
2013-04-18 16:24:00,35.6,25.4,29.77,NNW,338,5.6,15.0,66,0.00,OVC,SCT,0.50,0.0,WeatherDisplay:10.37,2013-04-18 21:24:00,
2013-04-18 16:29:00,35.6,24.2,29.77,NW,315,6.2,18.4,63,0.00,OVC,SCT,0.50,0.0,WeatherDisplay:10.37,2013-04-18 21:29:00,
2013-04-18 16:34:00,35.6,25.4,29.77,NNE,22,7.1,8.1,66,0.00,OVC,SCT,0.50,0.0,WeatherDisplay:10.37,2013-04-18 21:34:00,
2013-04-18 16:39:00,35.4,26.3,29.74,WSW,248,6.7,13.8,69,0.00,OVC,SCT,0.50,0.0,WeatherDisplay:10.37,2013-04-18 21:39:00,
2013-04-18 16:44:00,35.4,25.9,29.74,NNW,338,6.2,10.4,68,0.00,OVC,SCT,0.50,0.0,WeatherDisplay:10.37,2013-04-18 21:44:00,
2013-04-18 16:49:00,35.2,25.0,29.74,NW,315,9.7,12.7,66,0.20,RA,SCT,0.70,0.0,WeatherDisplay:10.37,2013-04-18 21:49:00,
2013-04-18 16:55:00,35.1,25.6,29.74,NNW,338,6.9,8.1,68,0.20,RA,SCT,0.70,0.0,WeatherDisplay:10.37,2013-04-18 21:55:00,
2013-04-18 17:00:00,34.9,25.7,29.74,WNW,292,9.8,19.6,69,0.20,OVC,SCT,0.70,0.0,WeatherDisplay:10.37,2013-04-18 22:00:00,
2013-04-18 17:05:00,34.9,25.7,29.74,NW,315,6.9,11.5,69,0.20,OVC,SCT,0.70,0.0,WeatherDisplay:10.37,2013-04-18 22:05:00,
2013-04-18 17:11:00,34.9,25.7,29.77,North,0,8.5,12.7,69,0.20,OVC,SCT,0.70,0.0,WeatherDisplay:10.37,2013-04-18 22:11:00,
2013-04-18 17:16:00,34.7,25.6,29.77,NNW,338,10.0,12.7,69,0.20,OVC,SCT,0.70,0.0,WeatherDisplay:10.37,2013-04-18 22:16:00,
2013-04-18 17:21:00,34.5,25.4,29.77,West,270,7.4,12.7,69,0.20,OVC,SCT,0.70,0.0,WeatherDisplay:10.37,2013-04-18 22:21:00,
2013-04-18 17:26:00,34.7,27.3,29.80,WNW,292,8.7,12.7,74,0.20,OVC,SCT,0.70,0.0,WeatherDisplay:10.37,2013-04-18 22:26:00,
2013-04-18 17:31:00,34.3,25.6,29.80,NNE,22,9.2,15.0,70,0.20,OVC,SCT,0.70,0.0,WeatherDisplay:10.37,2013-04-18 22:31:00,
2013-04-18 17:36:00,34.5,25.7,29.80,WNW,292,7.1,15.0,70,0.20,OVC,SCT,0.70,0.0,WeatherDisplay:10.37,2013-04-18 22:36:00,
2013-04-18 17:41:00,34.7,26.6,29.80,West,270,4.9,8.1,72,0.20,OVC,SCT,0.70,0.0,WeatherDisplay:10.37,2013-04-18 22:41:00,
2013-04-18 17:46:00,34.7,26.9,29.80,NNW,338,8.7,8.7,73,0.20,OVC,SCT,0.70,0.0,WeatherDisplay:10.37,2013-04-18 22:46:00,
2013-04-18 17:52:00,34.5,24.7,29.80,NNW,338,10.0,13.8,67,0.00,OVC,SCT,0.70,0.0,WeatherDisplay:10.37,2013-04-18 22:52:00,
2013-04-18 17:57:00,34.5,24.3,29.80,WNW,292,8.7,11.5,66,0.00,OVC,SCT,0.70,0.0,WeatherDisplay:10.37,2013-04-18 22:57:00,
2013-04-18 18:02:00,34.7,23.8,29.80,NNW,338,7.4,16.1,64,0.00,OVC,SCT,0.70,0.0,WeatherDisplay:10.37,2013-04-18 23:02:00,
2013-04-18 18:07:00,34.5,24.0,29.80,NNW,338,10.2,15.0,65,0.00,OVC,SCT,0.70,0.0,WeatherDisplay:10.37,2013-04-18 23:07:00,
2013-04-18 18:12:00,34.5,24.3,29.83,WNW,292,8.1,17.3,66,0.00,OVC,SCT,0.70,0.0,WeatherDisplay:10.37,2013-04-18 23:12:00,
2013-04-18 18:18:00,34.5,24.3,29.83,WNW,292,7.8,17.3,66,0.00,OVC,SCT,0.70,0.0,WeatherDisplay:10.37,2013-04-18 23:18:00,
2013-04-18 18:23:00,34.5,24.0,29.83,North,0,9.0,12.7,65,0.00,OVC,SCT,0.70,0.0,WeatherDisplay:10.37,2013-04-18 23:23:00,
2013-04-18 18:28:00,34.5,24.3,29.83,NNE,22,7.1,12.7,66,0.00,OVC,SCT,0.70,0.0,WeatherDisplay:10.37,2013-04-18 23:28:00,
2013-04-18 18:33:00,34.3,23.4,29.83,East,90,10.2,18.4,64,0.00,OVC,SCT,0.70,0.0,WeatherDisplay:10.37,2013-04-18 23:33:00,
2013-04-18 18:38:00,34.3,23.8,29.83,WNW,292,7.8,16.1,65,0.00,OVC,SCT,0.70,0.0,WeatherDisplay:10.37,2013-04-18 23:38:00,
2013-04-18 18:44:00,34.3,23.4,29.83,NNW,338,8.1,13.8,64,0.00,OVC,SCT,0.70,0.0,WeatherDisplay:10.37,2013-04-18 23:44:00,
2013-04-18 18:49:00,34.3,23.4,29.83,NW,315,6.9,13.2,64,0.00,SCT,,0.70,0.0,WeatherDisplay:10.37,2013-04-18 23:49:00,
2013-04-18 18:54:00,34.3,23.8,29.83,WNW,292,5.4,10.4,65,0.00,CLR,SCT,0.70,0.0,WeatherDisplay:10.37,2013-04-18 23:54:00,
2013-04-18 18:59:00,34.2,22.1,29.80,West,270,11.4,15.0,61,0.00,CLR,SCT,0.70,0.0,WeatherDisplay:10.37,2013-04-18 23:59:00,
2013-04-18 19:04:00,34.2,22.1,29.80,NW,315,9.7,12.7,61,0.00,CLR,SCT,0.70,0.0,WeatherDisplay:10.37,2013-04-19 00:04:00,
2013-04-18 19:09:00,34.2,22.9,29.83,WNW,292,9.2,16.3,63,0.00,CLR,SCT,0.70,0.0,WeatherDisplay:10.37,2013-04-19 00:09:00,
2013-04-18 19:14:00,34.0,22.7,29.83,WNW,292,6.9,10.0,63,0.00,CLR,SCT,0.70,0.0,WeatherDisplay:10.37,2013-04-19 00:14:00,
2013-04-18 19:20:00,34.0,22.3,29.83,NNW,338,6.0,10.4,62,0.00,CLR,SCT,0.70,0.0,WeatherDisplay:10.37,2013-04-19 00:20:00,
2013-04-18 19:25:00,34.0,23.1,29.83,North,0,5.9,10.4,64,0.00,CLR,SCT,0.70,0.0,WeatherDisplay:10.37,2013-04-19 00:25:00,
2013-04-18 19:30:00,34.0,22.7,29.83,NNW,338,7.8,15.0,63,0.00,CLR,SCT,0.70,0.0,WeatherDisplay:10.37,2013-04-19 00:30:00,
2013-04-18 19:35:00,33.8,23.3,29.83,NW,315,6.2,8.1,65,0.00,CLR,SCT,0.70,0.0,WeatherDisplay:10.37,2013-04-19 00:35:00,
2013-04-18 19:40:00,33.6,23.5,29.85,NNW,338,8.5,12.7,66,0.00,CLR,SCT,0.70,0.0,WeatherDisplay:10.37,2013-04-19 00:40:00,
2013-04-18 19:45:00,33.6,23.1,29.85,WNW,292,9.8,13.8,65,0.00,CLR,SCT,0.70,0.0,WeatherDisplay:10.37,2013-04-19 00:45:00,
2013-04-18 19:50:00,33.4,23.3,29.85,NE,45,6.7,6.9,66,0.00,CLR,SCT,0.70,0.0,WeatherDisplay:10.37,2013-04-19 00:50:00,
2013-04-18 19:55:00,33.3,23.1,29.85,NNE,22,8.7,10.4,66,0.00,CLR,SCT,0.70,0.0,WeatherDisplay:10.37,2013-04-19 00:55:00,
2013-04-18 20:00:00,33.3,23.1,29.85,NNW,338,6.9,13.8,66,0.00,CLR,SCT,0.70,0.0,WeatherDisplay:10.37,2013-04-19 01:00:00,
2013-04-18 20:06:00,33.1,22.6,29.85,North,0,10.9,17.3,65,0.00,CLR,SCT,0.70,0.0,WeatherDisplay:10.37,2013-04-19 01:06:00,
2013-04-18 20:11:00,32.9,22.4,29.85,North,0,7.4,9.2,65,0.00,CLR,SCT,0.70,0.0,WeatherDisplay:10.37,2013-04-19 01:11:00,
2013-04-18 20:16:00,32.7,23.3,29.85,NNE,22,6.0,10.4,68,0.00,CLR,SCT,0.70,0.0,WeatherDisplay:10.37,2013-04-19 01:16:00,
2013-04-18 20:21:00,32.7,23.7,29.85,WNW,292,10.5,15.0,69,0.00,CLR,SCT,0.70,0.0,WeatherDisplay:10.37,2013-04-19 01:21:00,
2013-04-18 20:26:00,32.5,23.8,29.88,WNW,292,8.5,13.7,70,0.00,CLR,SCT,0.70,0.0,WeatherDisplay:10.37,2013-04-19 01:26:00,
2013-04-18 20:32:00,32.4,24.7,29.88,WNW,292,5.9,9.2,73,0.00,CLR,SCT,0.70,0.0,WeatherDisplay:10.37,2013-04-19 01:32:00,
2013-04-18 20:37:00,32.2,24.8,29.88,WNW,292,6.4,16.1,74,0.00,CLR,SCT,0.70,339.0,WeatherDisplay:10.37,2013-04-19 01:37:00,
2013-04-18 20:42:00,32.0,25.0,29.88,NNW,338,7.4,17.3,75,0.00,CLR,SCT,0.70,0.0,WeatherDisplay:10.37,2013-04-19 01:42:00,
2013-04-18 20:47:00,32.0,24.6,29.88,West,270,6.2,11.5,74,0.00,CLR,SCT,0.70,0.0,WeatherDisplay:10.37,2013-04-19 01:47:00,
2013-04-18 20:52:00,32.0,24.6,29.88,North,0,4.0,8.1,74,0.00,CLR,SCT,0.70,0.0,WeatherDisplay:10.37,2013-04-19 01:52:00,
2013-04-18 20:57:00,32.0,24.3,29.88,WSW,248,8.1,13.8,73,0.00,CLR,SCT,0.70,0.0,WeatherDisplay:10.37,2013-04-19 01:57:00,
2013-04-18 21:03:00,32.0,24.6,29.88,NNW,338,4.3,11.5,74,0.00,CLR,SCT,0.70,0.0,WeatherDisplay:10.37,2013-04-19 02:03:00,
2013-04-18 21:08:00,32.0,24.6,29.88,NW,315,6.7,11.5,74,0.00,CLR,SCT,0.70,0.0,WeatherDisplay:10.37,2013-04-19 02:08:00,
2013-04-18 21:13:00,32.0,24.6,29.88,WNW,292,6.4,10.4,74,0.00,CLR,SCT,0.70,0.0,WeatherDisplay:10.37,2013-04-19 02:13:00,
2013-04-18 21:18:00,32.0,25.3,29.88,WNW,292,5.9,9.2,76,0.00,CLR,SCT,0.70,0.0,WeatherDisplay:10.37,2013-04-19 02:18:00,
2013-04-18 21:23:00,32.0,25.3,29.88,WSW,248,6.0,10.4,76,0.00,CLR,SCT,0.70,0.0,WeatherDisplay:10.37,2013-04-19 02:23:00,
2013-04-18 21:28:00,31.8,25.4,29.85,North,0,5.4,15.0,77,0.00,CLR,SCT,0.70,0.0,WeatherDisplay:10.37,2013-04-19 02:28:00,
2013-04-18 21:33:00,31.8,26.0,29.85,WNW,292,3.6,5.8,79,0.00,CLR,SCT,0.70,0.0,WeatherDisplay:10.37,2013-04-19 02:33:00,
2013-04-18 21:38:00,31.8,26.0,29.85,NNW,338,6.9,9.2,79,0.00,CLR,SCT,0.70,0.0,WeatherDisplay:10.37,2013-04-19 02:38:00,
2013-04-18 21:43:00,31.8,26.0,29.88,WSW,248,4.3,8.1,79,0.00,CLR,SCT,0.70,0.0,WeatherDisplay:10.37,2013-04-19 02:43:00,
2013-04-18 21:48:00,31.8,26.0,29.88,NNE,22,5.9,10.4,79,0.00,CLR,SCT,0.70,0.0,WeatherDisplay:10.37,2013-04-19 02:48:00,
2013-04-18 21:54:00,31.6,26.2,29.88,NNE,22,6.7,10.4,80,0.00,CLR,SCT,0.70,0.0,WeatherDisplay:10.37,2013-04-19 02:54:00,
2013-04-18 21:59:00,31.6,26.2,29.88,NNW,338,7.6,12.7,80,0.00,CLR,SCT,0.70,0.0,WeatherDisplay:10.37,2013-04-19 02:59:00,
2013-04-18 22:04:00,31.6,26.5,29.88,WNW,292,5.9,13.2,81,0.00,CLR,SCT,0.70,0.0,WeatherDisplay:10.37,2013-04-19 03:04:00,
2013-04-18 22:09:00,31.6,26.8,29.88,WNW,292,4.5,8.5,82,0.00,CLR,SCT,0.70,0.0,WeatherDisplay:10.37,2013-04-19 03:09:00,
2013-04-18 22:14:00,31.8,26.4,29.88,WNW,292,6.2,10.4,80,0.00,CLR,SCT,0.70,0.0,WeatherDisplay:10.37,2013-04-19 03:14:00,
2013-04-18 22:19:00,32.0,25.6,29.88,NNE,22,8.5,13.8,77,0.00,CLR,SCT,0.70,0.0,WeatherDisplay:10.37,2013-04-19 03:19:00,
2013-04-18 22:24:00,32.2,24.8,29.88,WNW,292,6.7,12.7,74,0.00,CLR,SCT,0.70,0.0,WeatherDisplay:10.37,2013-04-19 03:24:00,
2013-04-18 22:29:00,32.4,24.7,29.88,NNW,338,6.7,10.4,73,0.00,CLR,SCT,0.70,0.0,WeatherDisplay:10.37,2013-04-19 03:29:00,
2013-04-18 22:35:00,32.4,24.7,29.88,West,270,7.1,9.2,73,0.00,CLR,SCT,0.70,0.0,WeatherDisplay:10.37,2013-04-19 03:35:00,
2013-04-18 22:40:00,32.5,24.5,29.88,NW,315,6.4,12.7,72,0.00,CLR,SCT,0.70,0.0,WeatherDisplay:10.37,2013-04-19 03:40:00,
2013-04-18 22:45:00,32.5,24.2,29.88,WNW,292,6.4,9.2,71,0.00,CLR,SCT,0.70,0.0,WeatherDisplay:10.37,2013-04-19 03:45:00,
2013-04-18 22:50:00,32.5,24.2,29.88,NNE,22,5.9,9.2,71,0.00,CLR,SCT,0.70,0.0,WeatherDisplay:10.37,2013-04-19 03:50:00,
2013-04-18 22:55:00,32.5,23.8,29.88,NNW,338,8.5,10.2,70,0.00,CLR,SCT,0.70,0.0,WeatherDisplay:10.37,2013-04-19 03:55:00,
2013-04-18 23:00:00,32.5,24.2,29.88,North,0,5.4,8.1,71,0.00,CLR,SCT,0.70,0.0,WeatherDisplay:10.37,2013-04-19 04:00:00,
2013-04-18 23:01:00,32.5,24.2,29.88,NNE,22,5.9,8.1,71,0.00,CLR,SCT,0.70,0.0,WeatherDisplay:10.37,2013-04-19 04:01:00,
2013-04-18 23:02:00,32.5,24.2,29.88,NNE,22,8.7,8.7,71,0.00,CLR,SCT,0.70,0.0,WeatherDisplay:10.37,2013-04-19 04:02:00,
2013-04-18 23:07:00,32.5,24.2,29.88,NNW,338,4.9,9.2,71,0.00,CLR,SCT,0.70,0.0,WeatherDisplay:10.37,2013-04-19 04:07:00,
2013-04-18 23:12:00,32.5,24.2,29.88,NNW,338,4.9,11.5,71,0.00,CLR,SCT,0.70,0.0,WeatherDisplay:10.37,2013-04-19 04:12:00,
2013-04-18 23:13:00,32.5,24.2,29.88,NNE,22,7.1,12.7,71,0.00,CLR,SCT,0.70,0.0,WeatherDisplay:10.37,2013-04-19 04:13:00,
2013-04-18 23:18:00,32.5,23.8,29.88,NNW,338,6.9,10.4,70,0.00,CLR,SCT,0.70,0.0,WeatherDisplay:10.37,2013-04-19 04:18:00,
2013-04-18 23:23:00,32.5,23.8,29.88,WNW,292,8.5,10.9,70,0.00,CLR,SCT,0.70,0.0,WeatherDisplay:10.37,2013-04-19 04:23:00,
2013-04-18 23:28:00,32.5,23.5,29.88,WNW,292,6.2,9.2,69,0.00,CLR,SCT,0.70,0.0,WeatherDisplay:10.37,2013-04-19 04:28:00,
2013-04-18 23:33:00,32.5,23.5,29.88,WNW,292,6.7,10.4,69,0.00,CLR,SCT,0.70,0.0,WeatherDisplay:10.37,2013-04-19 04:33:00,
2013-04-18 23:38:00,32.5,23.5,29.88,WNW,292,4.3,11.5,69,0.00,CLR,SCT,0.70,0.0,WeatherDisplay:10.37,2013-04-19 04:38:00,
2013-04-18 23:43:00,32.5,23.1,29.88,NW,315,6.9,12.7,68,0.00,CLR,SCT,0.70,0.0,WeatherDisplay:10.37,2013-04-19 04:43:00,
2013-04-18 23:49:00,32.5,22.8,29.88,North,0,7.8,12.7,67,0.00,CLR,SCT,0.70,0.0,WeatherDisplay:10.37,2013-04-19 04:49:00,
2013-04-18 23:54:00,32.7,23.0,29.88,NNE,22,6.0,12.7,67,0.00,CLR,SCT,0.70,0.0,WeatherDisplay:10.37,2013-04-19 04:54:00,
2013-04-18 23:59:00,32.7,23.3,29.88,WSW,248,3.6,8.5,68,0.00,CLR,SCT,0.70,0.0,WeatherDisplay:10.37,2013-04-19 04:59:00,